Home   Weather   Paris Vinto Pampa   Past weeks
Flag for Bolivia

Past Weather in Paris Vinto Pampa, Bolivia — Yesterday and Last 2 Weeks

Now
54 °F

Clear.


Feels Like: 54 °F
Forecast: 53 / 27 °F
Wind: No wind

Location: Tarija Airport

Current Time: Jul 22, 2019 at 6:10:48 am

Latest Report: Jul 22, 2019 at 5:00 am


Visibility: N/A

Pressure: 29.92 "Hg

Humidity: 77%

Dew Point: 46 °F

Location of Paris Vinto PampaLocation

Past Weather in Paris Vinto Pampa — Graph

°F

Paris Vinto Pampa Temperature Yesterday

Maximum temperature yesterday: 88 °F (at 2:00 pm)
Minimum temperature yesterday: 54 °F (at 7:00 am)
Average temperature yesterday: 76 °F

High & Low Weather Summary for the Past Weeks

 TemperatureHumidityPressure
High93 °F (Jul 9, 3:00 pm)93% (Jul 7, 8:00 am)30.33 "Hg (Jul 7, 8:00 am)
Low30 °F (Jul 7, 7:00 am)8% (Jul 21, 1:00 pm)29.74 "Hg (Jul 21, 3:00 pm)
Average62 °F50%30.07 "Hg
* Reported Jul 7 6:00 am — Jul 22 5:00 am, Paris Vinto Pampa. Weather by CustomWeather, © 2019

Note: Actual official high and low records may vary slightly from our data, if they occured in-between our weather recording intervals... More about our weather records

Advertising

Paris Vinto Pampa Weather History for the Previous 24 Hours

Scroll right to see more
 ConditionsComfort  
Time TempWeatherWind HumidityBarometerVisibility
5:00 am
Mon, Jul 22
54 °FClear.No wind77%29.92 "HgN/A
11:00 pm
Sun, Jul 21
77 °FClear.9 mph22%29.86 "HgN/A
10:00 pm75 °FClear.9 mph22%29.86 "HgN/A
9:00 pm73 °FClear.9 mph22%29.83 "HgN/A
8:00 pm75 °FClear.9 mph19%29.80 "HgN/A
7:00 pm77 °FClear.7 mph14%29.80 "HgN/A
6:00 pm82 °FClear.9 mph10%29.74 "HgN/A
5:00 pm86 °FClear.8 mph10%29.74 "HgN/A
4:00 pm88 °FClear.7 mph8%29.74 "HgN/A
3:00 pm88 °FClear.5 mph9%29.74 "HgN/A
2:00 pm88 °FClear.No wind9%29.77 "HgN/A
1:00 pm86 °FClear.7 mph8%29.80 "HgN/A
12:00 pm84 °FClear.9 mph10%29.83 "HgN/A
11:00 am81 °FClear.9 mph14%29.86 "HgN/A
10:00 am73 °FClear.5 mph19%29.86 "HgN/A
9:00 am68 °FClear.6 mph23%29.89 "HgN/A
8:00 am61 °FClear.9 mph39%29.86 "HgN/A
7:00 am54 °FClear.5 mph38%29.86 "HgN/A
6:00 am59 °FClear.No wind36%29.86 "HgN/A
Weather by CustomWeather, © 2019

See weather overview